Weather History for Albuquerque, NM

Change the Weather History Date:

Monday, September 16, 2013

  Actual Average Record
Temperature  
Mean Temperature 68 °F 69 °F  
Max Temperature 77 °F 81 °F 94 °F (1956)
Min Temperature 59 °F 58 °F 42 °F (1903)
Degree Days  
Heating Degree Days 0 1  
Month to date heating degree days 0 2  
Since 1 July heating degree days 0 2  
Cooling Degree Days 3 5  
Month to date cooling degree days 145 114  
Year to date cooling degree days 1520 1271  
Growing Degree Days 18 (Base 50)    
Moisture  
Dew Point 53 °F    
Average Humidity 58    
Maximum Humidity 78    
Minimum Humidity 38    
Precipitation  
Precipitation 0.00 in 0.03 in 0.66 in (2009)
Month to date precipitation 3.35 0.57  
Year to date precipitation 7.24 6.85  
Snow  
Snow 0.00 in - - ()
Month to date snowfall 0.0  
Since 1 July snowfall 0.0  
Since 1 September snowfall 0.0  
Snow Depth 0.00 in    
Sea Level Pressure  
Sea Level Pressure 30.04 in    
Wind  
Wind Speed 5 mph (SE)    
Max Wind Speed 15 mph    
Max Gust Speed 17 mph    
Visibility 10 miles    
Events      
T = Trace of Precipitation, MM = Missing Value Source: NWS Daily Summary

Daily Weather History Graph

Daily Weather History Graph

Search for Another Location

Airport:

Trip Planner

Search our weather history database for the weather conditions in past years. The results will help you decide how hot, cold, wet, or windy it might be!

Date:

Astronomy

Sep. 16, 2013 Rise Set
Actual Time 6:50 AM MDT 7:11 PM MDT
Civil Twilight 6:24 AM MDT 7:36 PM MDT
Nautical Twilight 5:55 AM MDT 8:06 PM MDT
Astronomical Twilight 5:24 AM MDT 8:36 PM MDT
Moon 5:18 PM MDT (9/16) 3:45 AM MDT (9/16)
Length of Visible Light 13h 11m
Length of Day
12h 21m
Waxing Gibbous, 90% of the Moon is Illuminated
Sep 16
Waxing Gibbous
Sep 19
Full
Sep 26
Last Quarter
Oct 4
New
Oct 11
First Quarter

Hourly Weather History & Observations

Time (MDT) Temp. Dew Point Humidity Pressure Visibility Wind Dir Wind Speed Gust Speed Precip Events Conditions
12:52 AM 64.9 °F 53.1 °F 65% 30.03 in 10.0 mi NNW 8.1 mph - N/A   Scattered Clouds
1:52 AM 62.1 °F 54.0 °F 75% 30.03 in 10.0 mi NE 8.1 mph - N/A   Scattered Clouds
2:52 AM 62.1 °F 54.0 °F 75% 30.03 in 10.0 mi NW 4.6 mph - N/A   Partly Cloudy
3:52 AM 61.0 °F 54.0 °F 78% 30.03 in 10.0 mi NNE 4.6 mph - N/A   Partly Cloudy
4:52 AM 60.1 °F 54.0 °F 80% 30.04 in 10.0 mi Calm Calm - N/A   Scattered Clouds
5:52 AM 61.0 °F 53.1 °F 75% 30.05 in 10.0 mi NNW 5.8 mph - N/A   Scattered Clouds
6:52 AM 60.1 °F 53.1 °F 78% 30.07 in 10.0 mi North 4.6 mph - N/A   Scattered Clouds
7:52 AM 60.1 °F 53.1 °F 78% 30.10 in 10.0 mi NW 3.5 mph - N/A   Scattered Clouds
8:52 AM 61.0 °F 54.0 °F 78% 30.12 in 10.0 mi ESE 3.5 mph - N/A   Scattered Clouds
9:52 AM 64.9 °F 54.0 °F 68% 30.12 in 10.0 mi Calm Calm - N/A   Scattered Clouds
10:52 AM 69.1 °F 53.1 °F 57% 30.10 in 10.0 mi Calm Calm - N/A   Scattered Clouds
11:52 AM 71.1 °F 53.1 °F 53% 30.09 in 10.0 mi Variable 3.5 mph - N/A   Scattered Clouds
12:52 PM 73.0 °F 53.1 °F 49% 30.06 in 10.0 mi West 4.6 mph - N/A   Scattered Clouds
1:52 PM 73.9 °F 52.0 °F 46% 30.04 in 10.0 mi SE 10.4 mph - N/A   Scattered Clouds
2:52 PM 73.9 °F 51.1 °F 45% 30.02 in 10.0 mi SSW 3.5 mph - N/A   Scattered Clouds
3:52 PM 75.9 °F 51.1 °F 42% 29.98 in 10.0 mi South 9.2 mph - N/A   Scattered Clouds
4:52 PM 77.0 °F 50.0 °F 39% 29.97 in 10.0 mi South 10.4 mph - N/A   Scattered Clouds
5:52 PM 75.9 °F 48.9 °F 38% 29.97 in 10.0 mi SSE 3.5 mph - N/A   Scattered Clouds
6:52 PM 75.0 °F 52.0 °F 44% 29.97 in 10.0 mi SSW 9.2 mph - N/A   Scattered Clouds
7:52 PM 71.1 °F 55.9 °F 59% 29.99 in 10.0 mi SE 4.6 mph - N/A   Scattered Clouds
8:52 PM 68.0 °F 55.9 °F 65% 30.02 in 10.0 mi ESE 3.5 mph - N/A   Scattered Clouds
9:52 PM 69.1 °F 55.9 °F 63% 30.02 in 10.0 mi ESE 4.6 mph - N/A   Mostly Cloudy
10:52 PM 68.0 °F 55.0 °F 63% 30.02 in 10.0 mi ESE 4.6 mph - N/A   Partly Cloudy
11:52 PM 68.0 °F 54.0 °F 61% 30.02 in 10.0 mi East 6.9 mph - N/A   Partly Cloudy